This demonstration page uses our WeatherBlox Daily Observations layout. Learn more.

Left ArrowRight Arrow

Hourly Observations for May 2, 2022

Temp ( °F °C ) Dew Point ( °F °C ) Humidity (%) Winds ( mph kmh ) Pressure ( in mb ) Visibility ( mi km ) Precip ( " mm )
12:15 am 00:15 Cloudy 51 10.8 43 6 72 72 Calm 30.01 1016 10 16 0.00 0.00
12:35 am 00:35 Cloudy 51 10.7 43 6.1 73 73 Calm 30.01 1016 10 16 0.00 0.00
12:55 am 00:55 Cloudy 51 10.3 43 6.1 75 75 Calm 30.01 1016 10 16 0.00 0.00
1:15 am 01:15 Cloudy 50 10 43 6 76 76 Calm 30.01 1016 10 16 0.00 0.00
1:35 am 01:35 Mostly Cloudy 49 9.6 43 6 78 78 Calm 30.01 1016 10 16 0.00 0.00
1:55 am 01:55 Partly Cloudy 48 9 42 5.6 79 79 Calm 30.01 1016 10 16 0.00 0.00
2:15 am 02:15 Mostly Cloudy 48 8.7 43 5.9 83 83 Calm 30.02 1016 10 16 0.00 0.00
2:35 am 02:35 Partly Cloudy 46 8 42 5.7 86 86 Calm 30.03 1017 10 16 0.00 0.00
2:55 am 02:55 Clear 46 7.5 42 5.6 88 88 Calm 30.03 1017 10 16 0.00 0.00
3:15 am 03:15 Mostly Cloudy 46 7.5 42 5.5 87 87 Calm 30.04 1017 10 16 0.00 0.00
3:35 am 03:35 Partly Cloudy 45 7.3 42 5.4 88 88 Calm 30.04 1017 10 16 0.00 0.00
3:55 am 03:55 Partly Cloudy 45 7.1 42 5.4 89 89 Calm 30.05 1018 10 16 0.00 0.00
4:15 am 04:15 Mostly Cloudy 44 6.8 41 5.1 89 89 Calm 30.05 1018 10 16 0.00 0.00
4:35 am 04:35 Partly Cloudy 44 6.7 41 5 89 89 Calm 30.05 1018 10 16 0.00 0.00
4:55 am 04:55 Clear 44 6.7 41 5.1 90 90 Calm 30.05 1018 10 16 0.00 0.00
5:15 am 05:15 Clear 44 6.8 41 5 88 88 Calm 30.05 1018 10 16 0.00 0.00
5:35 am 05:35 Clear 42 5.6 40 4.6 93 93 Calm 30.07 1018 10 16 0.00 0.00
5:55 am 05:55 Clear 42 5.5 40 4.5 93 93 Calm 30.07 1018 10 16 0.00 0.00
6:15 am 06:15 Clear 42 5.5 40 4.7 95 95 Calm 30.07 1018 10 16 0.00 0.00
6:35 am 06:35 Clear 42 5.6 40 4.5 93 93 Calm 30.07 1018 10 16 0.00 0.00
6:55 am 06:55 Sunny 42 5.5 40 4.4 93 93 Calm 30.08 1019 10 16 0.00 0.00
7:15 am 07:15 Sunny 43 6.1 40 4.7 91 91 Calm 30.08 1018 10 16 0.00 0.00
7:35 am 07:35 Sunny 44 6.8 42 5.5 92 92 Calm 30.08 1019 10 16 0.00 0.00
7:55 am 07:55 Sunny 46 8 43 5.9 87 87 Calm 30.08 1019 10 16 0.00 0.00
8:15 am 08:15 Sunny 47 8.5 43 6 84 84 Calm 30.08 1018 10 16 0.00 0.00
8:35 am 08:35 Sunny 48 9.1 43 6.1 82 82 Calm 30.08 1019 10 16 0.00 0.00
8:50 am 08:50 Sunny 49 9.5 43 6.2 80 80 Calm 30.09 1019 10 16 0.00 0.00
9:15 am 09:15 Sunny 50 10.2 44 6.4 78 78 W 8 13 30.10 1019 10 16 0.00 0.00
9:35 am 09:35 Sunny 51 10.8 44 6.8 77 77 WSW 7 11 30.11 1020 10 16 0.00 0.00
9:55 am 09:55 Partly Cloudy 52 11 44 6.6 75 75 WNW 5 7 30.10 1019 10 16 0.00 0.00
10:15 am 10:15 Partly Cloudy 53 11.6 44 6.6 72 72 WNW 8 13 30.10 1019 10 16 0.00 0.00
10:35 am 10:35 Mostly Cloudy 53 11.8 44 6.5 70 70 WSW 8 13 30.09 1019 10 16 0.00 0.00
10:55 am 10:55 Mostly Cloudy 54 12.3 44 6.4 68 68 WSW 13 20 30.09 1019 10 16 0.00 0.00
11:15 am 11:15 Partly Cloudy 55 12.7 44 6.6 67 67 W 10 17 30.09 1019 10 16 0.00 0.00
11:35 am 11:35 Partly Cloudy 56 13.1 45 7 67 67 SW 7 11 30.09 1019 10 16 0.00 0.00
11:55 am 11:55 Partly Cloudy 55 13 44 6.5 65 65 Calm 30.08 1019 10 16 0.00 0.00
12:15 pm 12:15 Partly Cloudy 56 13.6 45 7.1 65 65 WSW 5 7 30.09 1019 10 16 0.00 0.00
12:35 pm 12:35 Partly Cloudy 57 14.1 46 7.5 65 65 W 10 17 30.09 1019 10 16 0.00 0.00
12:55 pm 12:55 Partly Cloudy 58 14.3 46 7.5 64 64 Calm 30.09 1019 10 16 0.00 0.00
1:15 pm 13:15 Sunny 59 14.9 46 8 64 64 W 3 6 30.07 1018 10 16 0.00 0.00
1:35 pm 13:35 Sunny 59 15.2 46 7.7 61 61 W 6 9 30.06 1018 10 16 0.00 0.00
1:55 pm 13:55 Sunny 60 15.8 46 8 60 60 NW 8 13 30.05 1018 10 16 0.00 0.00
2:15 pm 14:15 Sunny 61 16.1 46 7.9 58 58 WNW 3 6 30.05 1018 10 16 0.00 0.00
2:35 pm 14:35 Sunny 62 16.4 46 7.7 57 57 Calm 30.05 1018 10 16 0.00 0.00
2:55 pm 14:55 Sunny 62 16.7 46 7.8 56 56 Calm 30.05 1018 10 16 0.00 0.00
3:15 pm 15:15 Sunny 62 16.9 46 8 56 56 SW 5 7 30.06 1018 10 16 0.00 0.00
3:35 pm 15:35 Sunny 63 17.1 47 8.1 56 56 WSW 10 17 30.05 1017 10 16 0.00 0.00
3:55 pm 15:55 Sunny 63 17.2 46 7.8 54 54 WSW 5 7 30.06 1018 10 16 0.00 0.00
4:15 pm 16:15 Sunny 63 17.2 46 7.8 54 54 WSW 8 13 30.06 1018 10 16 0.00 0.00
4:35 pm 16:35 Sunny 63 17.3 46 7.6 53 53 WSW 9 15 30.05 1017 10 16 0.00 0.00
4:55 pm 16:55 Sunny 63 17.2 46 7.6 53 53 W 10 17 30.05 1017 10 16 0.00 0.00
5:15 pm 17:15 Sunny 63 17.2 46 7.8 54 54 WSW 9 15 30.05 1017 10 16 0.00 0.00
5:35 pm 17:35 Sunny 63 17.3 46 7.8 54 54 W 9 15 30.04 1017 10 16 0.00 0.00
5:55 pm 17:55 Sunny 63 17.3 46 7.5 53 53 WSW 5 7 30.04 1017 10 16 0.00 0.00
6:15 pm 18:15 Sunny 64 17.5 46 7.9 54 54 Calm 30.03 1017 10 16 0.00 0.00
6:35 pm 18:35 Sunny 63 17.1 47 8.6 58 58 Calm 30.04 1017 10 16 0.00 0.00
6:55 pm 18:55 Sunny 63 17.1 48 8.8 58 58 Calm 30.03 1017 10 16 0.00 0.00
7:15 pm 19:15 Sunny 62 16.9 49 9.3 61 61 Calm 30.02 1016 10 16 0.00 0.00
7:35 pm 19:35 Sunny 62 16.5 49 9.3 63 63 Calm 30.02 1017 10 16 0.00 0.00
7:55 pm 19:55 Sunny 62 16.6 48 8.7 60 60 Calm 30.02 1017 10 16 0.00 0.00
8:15 pm 20:15 Sunny 60 15.5 50 10.2 71 71 NNE 3 6 30.01 1016 10 16 0.00 0.00
8:35 pm 20:35 Sunny 60 15.5 49 9.2 66 66 Calm 30.02 1017 10 16 0.00 0.00
8:55 pm 20:55 Clear 60 15.3 49 9.2 67 67 Calm 30.01 1016 10 16 0.00 0.00
9:15 pm 21:15 Clear 59 15.2 49 9.4 69 69 Calm 30.01 1016 10 16 0.00 0.00
9:35 pm 21:35 Clear 58 14.2 52 11.2 82 82 Calm 30.01 1016 10 16 0.00 0.00
9:55 pm 21:55 Clear 57 14.1 51 10.5 79 79 Calm 30.03 1017 10 16 0.00 0.00
10:15 pm 22:15 Clear 56 13.5 51 10.4 82 82 Calm 30.02 1017 10 16 0.00 0.00
10:35 pm 22:35 Clear 57 13.8 50 10.1 79 79 Calm 30.02 1017 10 16 0.00 0.00
10:55 pm 22:55 Clear 57 13.7 50 9.8 77 77 E 3 6 30.02 1017 10 16 0.00 0.00
11:15 pm 23:15 Clear 57 14 49 9.5 75 75 E 6 9 30.01 1016 10 16 0.00 0.00
11:35 pm 23:35 Partly Cloudy 58 14.2 49 9.3 73 73 E 7 11 29.99 1015 10 16 0.00 0.00
11:55 pm 23:55 Cloudy 57 14 48 9 72 72 Calm 30.01 1016 10 16 0.00 0.00

Powered by AerisWeather